TimeHST,TemperatureF,Dew PointF,Humidity,Sea Level PressureIn,VisibilityMPH,Wind Direction,Wind SpeedMPH,Gust SpeedMPH,PrecipitationIn,Events,Conditions,WindDirDegrees,DateUTC
12:56 AM,63.9,59.0,84,30.09,-9999.0,ENE,9.2,-,N/A,,Clear,60,2013-02-20 10:56:00
1:56 AM,62.6,59.0,88,30.12,-9999.0,NE,5.8,-,N/A,,Clear,50,2013-02-20 11:56:00
2:56 AM,63.9,59.0,84,30.06,-9999.0,East,4.6,-,N/A,,Clear,80,2013-02-20 12:56:00
3:56 AM,63.9,59.0,84,30.05,-9999.0,NE,9.2,-,N/A,,Clear,50,2013-02-20 13:56:00
4:56 AM,64.4,60.8,88,30.10,-9999.0,ENE,11.5,-,N/A,,Clear,60,2013-02-20 14:56:00
5:56 AM,64.9,59.9,84,30.07,-9999.0,ENE,13.8,-,N/A,,Clear,60,2013-02-20 15:56:00
6:56 AM,64.9,59.9,84,30.09,-9999.0,ENE,15.0,-,N/A,,Clear,60,2013-02-20 16:56:00
7:56 AM,66.9,61.0,81,30.11,-9999.0,NE,23.0,29.9,N/A,,Clear,50,2013-02-20 17:56:00
8:56 AM,72.0,61.9,70,30.12,-9999.0,ENE,13.8,-,N/A,,Clear,70,2013-02-20 18:56:00
9:56 AM,73.9,59.9,61,30.13,-9999.0,NE,15.0,-,N/A,,Clear,50,2013-02-20 19:56:00
10:56 AM,77.0,61.9,59,30.12,-9999.0,NE,20.7,27.6,N/A,,Clear,40,2013-02-20 20:56:00
11:56 AM,77.0,61.0,58,30.10,-9999.0,NE,27.6,33.4,N/A,,Clear,50,2013-02-20 21:56:00
12:56 PM,79.0,59.0,50,30.08,-9999.0,NE,23.0,32.2,N/A,,Clear,50,2013-02-20 22:56:00
1:56 PM,77.9,59.0,52,30.06,-9999.0,NE,26.5,36.8,N/A,,Clear,50,2013-02-20 23:56:00
2:56 PM,77.9,57.9,50,30.05,-9999.0,NE,27.6,35.7,N/A,,Clear,40,2013-02-21 00:56:00
3:56 PM,74.8,59.0,58,30.05,-9999.0,NE,31.1,38.0,N/A,,Clear,50,2013-02-21 01:56:00
4:56 PM,72.9,57.9,59,30.02,-9999.0,NE,36.8,43.7,N/A,,Clear,40,2013-02-21 02:56:00
5:56 PM,68.9,57.9,68,30.05,-9999.0,NE,32.2,46.0,N/A,,Clear,50,2013-02-21 03:56:00
6:56 PM,65.8,57.9,76,30.03,-9999.0,NE,39.1,55.2,N/A,,Clear,40,2013-02-21 04:56:00
7:56 PM,65.8,59.0,79,30.05,-9999.0,NE,36.8,44.9,N/A,,Clear,40,2013-02-21 05:56:00
10:56 PM,64.9,59.9,84,30.08,-9999.0,NE,32.2,38.0,N/A,,Clear,40,2013-02-21 08:56:00
11:56 PM,64.9,59.0,81,30.09,-9999.0,ENE,20.7,27.6,N/A,,Clear,60,2013-02-21 09:56:00